Location: Punta Sibilla
(40.3667°N, 9.4500°E)
Time: 20:02:24
(UTC+00:00)

Daily predictions for brighter satellites

Satellite Brightness Start Highest point End
(mag) Time Altitude Azimuth Time Altitude Azimuth Time Altitude Azimuth
DELTA 2 R/B (1) 3.6 18:48:44 10° W 18:54:19 84° S 18:59:54 10° E
Resurs 01 Rocket 3.3 18:53:05 10° ESE 18:56:02 18° ENE 18:59:00 10° NNE
Cosmos 1603 3.9 18:50:59 10° NNW 18:56:40 79° WSW 19:02:16 10° SSE
SAR-Lupe-4 3.9 18:53:23 10° N 18:56:59 72° WNW 19:00:32 10° SSW
FALCON 9 DEB 4.2 18:56:41 10° NNW 18:59:25 29° NNE 19:02:09 10° E
Cosmos 1174 4.5 19:02:35 10° NW 19:06:03 41° WSW 19:09:01 10° S
Lacrosse 5 rocket 3.9 19:09:13 10° W 19:12:01 17° WSW 19:14:54 10° SSW
MOS 1-B Rocket 4.3 19:06:48 10° NNE 19:14:20 72° ESE 19:20:41 10° S
Meteor 2-15 Rocket 4.5 19:11:11 10° S 19:17:15 90° SSE 19:23:22 10° N
SJ-6B 2.8 19:14:15 10° SSE 19:18:05 87° WSW 19:22:02 10° NNW
Cosmos 1408 Rocket 4.3 19:22:27 10° NNW 19:26:45 54° W 19:31:03 10° S
SL-08 ROCKET BODY 4.3 19:20:58 10° N 19:26:52 68° E 19:32:39 10° SSE
Ariane Rocket 3.0 19:22:44 10° SSE 19:27:45 73° ENE 19:32:48 10° N
USA 290 4.2 19:26:47 10° NNE 19:28:59 17° ENE 19:30:10 14° E
Cosmos 921 Rocket 4.1 19:26:05 10° NNW 19:30:07 42° W 19:34:04 10° S
ASTRO E2 4.4 19:29:56 10° SW 19:32:45 18° S 19:34:27 15° SSE
Cosmos 1606 2.7 19:29:38 10° S 19:33:23 82° W 19:37:11 10° N
IRIS 3.8 19:31:04 10° W 19:33:25 72° N 19:35:32 16° E
FALCON 9 DEB 2.9 19:30:59 10° NW 19:34:01 65° NE 19:35:41 24° ESE
Cosmos 1943 4.4 19:29:09 10° NW 19:34:21 39° WSW 19:39:34 10° S
Cosmos 1844 Rocket 2.6 19:29:50 10° SSW 19:35:23 82° ESE 19:40:59 10° NNE
CZ-2C R/B 4.5 19:32:42 10° NE 19:36:41 31° E 19:39:20 17° SSE
SL-4 R/B 2.3 19:38:12 10° NW 19:42:37 76° NE 19:45:35 22° ESE
Cosmos 1354 Rocket 4.4 19:39:12 10° S 19:44:04 42° ESE 19:48:59 10° NNE
Cosmos 1805 Rocket 3.5 19:40:14 10° N 19:44:33 64° E 19:47:34 19° SSE
ARIANE 5 R/B 4.3 19:43:07 16° E 19:44:40 19° ENE 19:47:40 10° NNE
X-37B 2.1 19:42:17 10° WNW 19:45:14 33° N 19:47:53 12° ENE
Cosmos 1386 Rocket 4.5 19:40:27 10° N 19:46:26 64° E 19:51:19 16° SSE
Milstar 3 4.5 19:37:24 10° SW 19:50:39 33° S 19:56:05 20° ESE
SPOT 3 Rocket 3.6 19:49:01 20° SSE 19:52:33 63° ENE 19:57:38 10° N
Cosmos 1633 Rocket 4.1 19:49:09 10° NNE 19:52:58 28° ENE 19:54:17 24° ESE
Cosmos 1745 Rocket 3.9 19:47:28 10° N 19:53:41 76° E 19:58:40 16° SSE
Resurs 1-3 3.9 19:50:48 12° S 19:54:47 64° W 19:59:09 10° NNW
Landsat 7 4.0 19:52:36 23° SE 19:55:21 56° ENE 20:00:01 10° N
Cosmos 1844 3.8 19:49:51 10° SSW 19:55:36 85° WNW 20:01:20 10° NNE
Cosmos 968 Rocket 4.2 19:51:15 10° SSW 19:56:24 56° WNW 20:01:34 10° N
Cosmos 1709 Rocket 4.4 19:50:38 10° N 19:56:29 45° ENE 19:59:47 24° SE
BREEZE-M DEB (TANK) 4.3 19:55:14 10° WNW 19:59:32 68° NNE 20:06:55 15° ESE
NOSS 3-3 (A) 4.0 19:55:08 10° S 20:00:27 47° ESE 20:06:24 10° NE
NOSS 3-3 (C) 4.0 19:55:15 10° S 20:00:34 46° ESE 20:06:30 10° NE
Cosmos 1328 Rocket 4.3 19:59:50 29° ESE 20:00:55 33° E 20:04:54 10° NNE
ATLAS 5 CENTAUR R/B 3.0 19:56:37 10° NNW 20:02:03 45° NE 20:05:41 24° ESE
Meteor 1-26 Rocket 4.3 20:02:17 18° S 20:06:31 58° E 20:12:00 10° NNE
IGS 5A 3.3 20:04:30 28° SSE 20:06:37 85° ENE 20:10:46 10° N
Intercosmos 25 Rocket 4.4 20:01:54 10° NNW 20:07:55 57° W 20:11:06 15° SSW
Cosmos 2315 Rocket 4.1 20:04:40 19° SSE 20:09:08 57° E 20:15:23 10° NNE
S3M 4.2 20:03:31 10° SSW 20:09:53 75° W 20:16:16 10° N
Cosmos 1833 Rocket 4.2 20:07:19 10° N 20:11:42 22° NE 20:14:00 18° E
BREEZE-M R/B 4.0 20:10:20 10° W 20:12:37 26° NNW 20:14:47 10° NE
Cosmos 1666 Rocket 3.5 20:14:16 10° N 20:18:40 67° E 20:19:58 43° SSE
FALCON 9 DEB 4.2 20:17:21 10° WNW 20:20:02 29° SW 20:20:03 29° SW
Cosmos 1933 3.8 20:17:12 15° SSW 20:20:29 58° W 20:24:29 10° N
Meteor 2-17 Rocket 4.4 20:15:41 10° N 20:21:51 77° E 20:25:05 30° SSE
USA 245 4.2 20:23:48 21° NNE 20:23:48 21° NNE 20:24:46 10° N
Cosmos 1242 Rocket 3.2 20:24:03 23° SSW 20:26:05 54° WNW 20:29:36 10° N
Resurs 01 Rocket 2.6 20:29:42 22° SSW 20:32:11 43° W 20:36:26 10° NNW
BREEZE M DEB (TANK) 4.0 20:29:37 10° NW 20:32:48 19° N 20:34:07 14° NE
Spot 2 Rocket 3.4 20:34:12 46° SE 20:35:40 71° ENE 20:40:42 10° N
Cosmos 773 Rocket 4.3 20:30:34 10° N 20:35:46 53° ENE 20:37:01 43° ESE
SJ 16-02 2.9 20:38:19 22° ENE 20:38:19 22° ENE 20:40:31 10° NE
DELTA 2 R/B (1) 3.6 20:35:12 10° W 20:40:41 61° SSW 20:41:51 49° SSE
Sich 1 4.3 20:36:50 10° NNW 20:40:51 37° W 20:43:00 22° SW
Meteor 2-6 Rocket 4.3 20:41:13 46° ESE 20:42:00 50° E 20:47:16 10° NNE
COSMOS 2406 4.0 20:37:05 10° N 20:42:20 37° ENE 20:43:44 33° E
Cosmos 1782 3.3 20:43:16 37° SW 20:44:34 57° W 20:48:31 10° N
Cosmos 2082 Rocket 3.8 20:40:40 10° N 20:44:55 21° NE 20:46:29 19° ENE
CZ-4C R/B 3.5 20:40:29 10° NNW 20:47:35 51° NE 20:51:18 31° ESE
Cosmos 1500 3.4 20:43:52 10° N 20:47:10 61° NE 20:47:10 61° NE
ERS-1 Rocket 2.9 20:50:52 57° ESE 20:51:36 65° ENE 20:56:35 10° N
SPOT 5 2.9 20:52:52 59° ESE 20:53:35 67° ENE 20:58:44 10° N
Cosmos 1271 Rocket 4.2 21:00:22 29° NE 21:00:22 29° NE 21:02:40 10° NNE
H-2A R/B 4.2 20:54:46 10° NNE 20:57:49 40° NE 20:57:49 40° NE
Cosmos 1151 Rocket 4.2 20:58:03 25° SW 21:00:02 40° WNW 21:04:10 10° N
Cosmos 1777 Rocket 3.9 20:58:39 45° SSW 21:00:17 85° WNW 21:05:31 10° NNE
Meteor 1-11 Rocket 4.5 20:56:33 10° N 21:02:08 39° ENE 21:02:44 38° E
Terra 2.0 21:02:23 56° ENE 21:02:25 56° ENE 21:07:06 10° N
USA 290 4.4 21:00:47 10° NW 21:02:58 21° W 21:02:58 21° W
Cosmos 2278 Rocket 2.0 21:05:43 58° S 21:06:51 79° ESE 21:12:31 10° NNE
Cosmos 1515 Rocket 3.9 21:17:35 60° W 21:17:42 60° W 21:22:04 10° N
ARIANE 5 R/B 3.5 21:20:40 39° WSW 21:20:50 39° W 21:24:54 10° NNW
SL-4 R/B 4.3 21:18:38 10° W 21:21:08 19° WSW 21:21:08 19° WSW
X-37B 3.2 21:19:00 10° WNW 21:20:10 20° WNW 21:20:10 20° WNW
Meteor 1-10 Rocket 4.0 21:22:59 74° S 21:23:30 90° SW 21:29:10 10° N
Cosmos 1943 Rocket 4.2 21:30:26 15° ENE 21:30:26 15° ENE 21:31:48 10° NE
Cosmos 1812 4.2 21:31:31 33° WNW 21:31:31 33° WNW 21:34:44 10° N
Cosmos 2154 Rocket 4.0 21:26:19 10° N 21:32:37 65° E 21:33:02 63° ESE
Cosmos 2184 Rocket 3.9 21:34:22 10° N 21:40:36 75° W 21:41:19 67° SW
NOSS 3-4 (A) 4.1 21:38:18 10° NNW 21:45:18 60° NE 21:47:02 49° E
NOSS 3-4 (C) 4.1 21:38:24 10° NNW 21:45:23 60° NE 21:47:09 49° E
ATLAS 5 CENTAUR R/B 3.4 21:41:20 10° NW 21:46:44 36° WSW 21:47:13 35° SW
Cosmos 2074 Rocket 4.2 21:42:20 10° NNW 21:48:33 63° W 21:49:23 57° SW
Nadezhda 1 Rocket 3.9 21:51:52 72° SW 21:52:29 79° W 21:58:47 10° N
Cosmos 1833 Rocket 3.0 21:50:27 10° NNW 21:55:42 55° W 21:55:42 55° W
ATLAS 2AS CENTAUR R/B 3.5 21:51:50 10° NNW 21:58:49 44° NE 22:00:32 38° E
Meteor 2-12 Rocket 4.4 21:52:50 10° NNW 21:58:54 72° W 21:59:02 72° WSW
SJ 16-02 3.2 22:15:15 26° WNW 22:15:16 26° WNW 22:19:01 10° N
Meteor 1-27 Rocket 4.3 22:18:37 50° W 22:18:54 50° WNW 22:24:36 10° N
Cosmos 1680 Rocket 4.0 22:17:12 10° NNW 22:21:27 57° N 22:21:27 57° N
Cosmos 2341 Rocket 4.0 22:16:59 10° N 22:23:08 79° NE 22:23:08 79° NE
Cosmos 2366 rocket 4.4 22:18:35 10° N 22:24:07 51° ENE 22:24:07 51° ENE
Cosmos 2082 Rocket 2.8 22:23:52 10° NNW 22:28:19 50° WNW 22:28:19 50° WNW
CZ-4C R/B 3.6 22:29:09 10° NW 22:36:17 43° WSW 22:36:28 43° WSW
Terra 4.2 22:41:15 14° W 22:41:15 14° W 22:43:09 10° WNW
Cosmos 2218 Rocket 4.1 22:36:22 10° N 22:42:06 70° NE 22:42:06 70° NE
Cosmos 2369 Rocket 3.1 23:03:27 43° NE 23:03:27 43° NE 23:07:16 10° NNE
Cosmos 1943 Rocket 2.8 23:11:54 51° NNW 23:11:54 51° NNW 23:16:39 10° NNE
SL-8 Rocket 4.5 23:06:05 10° NNW 23:11:34 51° WNW 23:11:34 51° WNW
Meteor 2-4 Rocket 4.2 23:20:31 59° N 23:20:31 59° N 23:25:08 10° N
Cosmos 1656 Rocket 4.3 23:39:04 49° NNE 23:39:04 49° NNE 23:43:03 10° NNE
SeaSat 1 3.4 23:34:48 10° NNE 23:38:19 44° N 23:38:19 44° N
USA 215 3.2 23:42:20 81° ENE 23:42:29 82° NE 23:49:02 10° NW
ATLAS 2AS CENTAUR R/B 3.7 23:43:06 10° NW 23:47:56 35° W 23:47:56 35° W
CZ-2D R/B 4.0 23:50:27 10° NE 23:53:55 20° E 23:53:55 20° E
